Time,TemperatureF,DewpointF,PressureIn,WindDirection,WindDirectionDegrees,WindSpeedMPH,WindSpeedGustMPH,Humidity,HourlyPrecipIn,Conditions,Clouds,dailyrainin,SoftwareType,DateUTC
2013-09-11 00:09:00,74.5,64.1,29.88,WSW,244,0.0,0.0,70,0.00,,---,0.00,VWS V14.01,2013-09-11 05:09:00,
2013-09-11 00:10:00,74.5,64.1,29.88,WSW,244,0.0,0.0,70,0.00,,---,0.00,VWS V14.01,2013-09-11 05:10:00,
2013-09-11 00:15:00,74.2,64.6,29.89,WSW,244,0.0,0.0,72,0.00,,---,0.00,VWS V14.01,2013-09-11 05:15:00,
2013-09-11 00:20:00,73.9,64.3,29.89,WSW,244,0.0,0.0,72,0.00,,---,0.00,VWS V14.01,2013-09-11 05:20:00,
2013-09-11 00:25:00,73.8,64.2,29.89,WSW,244,0.0,0.0,72,0.00,,---,0.00,VWS V14.01,2013-09-11 05:25:00,
2013-09-11 00:30:00,73.9,64.3,29.90,WSW,244,0.0,0.0,72,0.00,,---,0.00,VWS V14.01,2013-09-11 05:30:00,
2013-09-11 00:35:00,73.7,64.5,29.90,WSW,244,0.0,0.0,73,0.00,,---,0.00,VWS V14.01,2013-09-11 05:35:00,
2013-09-11 00:40:00,73.6,64.4,29.90,WSW,244,0.0,0.0,73,0.00,,---,0.00,VWS V14.01,2013-09-11 05:40:00,
2013-09-11 00:45:00,73.7,64.9,29.90,WSW,244,0.0,0.0,74,0.00,,---,0.00,VWS V14.01,2013-09-11 05:45:00,
2013-09-11 00:50:00,73.6,64.8,29.90,WSW,244,0.0,0.0,74,0.00,,---,0.00,VWS V14.01,2013-09-11 05:50:00,
2013-09-11 00:55:00,73.6,65.2,29.90,WSW,244,0.0,0.0,75,0.00,,---,0.00,VWS V14.01,2013-09-11 05:55:00,
2013-09-11 01:00:00,73.5,64.7,29.90,WSW,244,0.0,1.0,74,0.00,,---,0.00,VWS V14.01,2013-09-11 06:00:00,
2013-09-11 01:04:00,73.5,65.1,29.90,WSW,244,0.0,1.0,75,0.00,,---,0.00,VWS V14.01,2013-09-11 06:04:00,
2013-09-11 01:05:00,73.5,65.1,29.90,WSW,244,0.0,1.0,75,0.00,,---,0.00,VWS V14.01,2013-09-11 06:05:00,
2013-09-11 01:09:00,73.6,65.2,29.90,WSW,245,0.0,2.0,75,0.00,,---,0.00,VWS V14.01,2013-09-11 06:09:00,
2013-09-11 01:10:00,73.6,65.2,29.90,WSW,245,0.0,2.0,75,0.00,,---,0.00,VWS V14.01,2013-09-11 06:10:00,
2013-09-11 01:14:00,73.5,65.1,29.90,WSW,245,0.0,0.0,75,0.00,,---,0.00,VWS V14.01,2013-09-11 06:14:00,
2013-09-11 01:15:00,73.5,65.1,29.90,WSW,245,0.0,0.0,75,0.00,,---,0.00,VWS V14.01,2013-09-11 06:15:00,
2013-09-11 01:19:00,73.3,65.3,29.90,WSW,245,0.0,0.0,76,0.00,,---,0.00,VWS V14.01,2013-09-11 06:19:00,
2013-09-11 01:20:00,73.3,65.3,29.90,WSW,245,0.0,0.0,76,0.00,,---,0.00,VWS V14.01,2013-09-11 06:20:00,
2013-09-11 01:25:00,73.0,65.4,29.91,WSW,245,0.0,0.0,77,0.00,,---,0.00,VWS V14.01,2013-09-11 06:25:00,
2013-09-11 01:30:00,72.8,65.2,29.91,WSW,245,0.0,0.0,77,0.00,,---,0.00,VWS V14.01,2013-09-11 06:30:00,
2013-09-11 01:35:00,72.6,65.3,29.91,WSW,245,0.0,0.0,78,0.00,,---,0.00,VWS V14.01,2013-09-11 06:35:00,
2013-09-11 01:40:00,72.5,65.6,29.91,WSW,245,0.0,0.0,79,0.00,,---,0.00,VWS V14.01,2013-09-11 06:40:00,
2013-09-11 01:45:00,72.4,65.5,29.91,WSW,245,0.0,0.0,79,0.00,,---,0.00,VWS V14.01,2013-09-11 06:45:00,
2013-09-11 01:50:00,72.4,65.9,29.91,WSW,245,0.0,0.0,80,0.00,,---,0.00,VWS V14.01,2013-09-11 06:50:00,
2013-09-11 01:55:00,72.4,65.9,29.91,WSW,245,0.0,0.0,80,0.00,,---,0.00,VWS V14.01,2013-09-11 06:55:00,
2013-09-11 02:00:00,72.3,65.8,29.91,WSW,245,0.0,0.0,80,0.00,,---,0.00,VWS V14.01,2013-09-11 07:00:00,
2013-09-11 02:05:00,72.2,65.7,29.91,WSW,245,0.0,0.0,80,0.00,,---,0.00,VWS V14.01,2013-09-11 07:05:00,
2013-09-11 02:10:00,72.2,66.1,29.92,WSW,245,0.0,0.0,81,0.00,,---,0.00,VWS V14.01,2013-09-11 07:10:00,
2013-09-11 02:15:00,72.3,66.2,29.92,WSW,245,0.0,0.0,81,0.00,,---,0.00,VWS V14.01,2013-09-11 07:15:00,
2013-09-11 02:20:00,72.3,65.8,29.92,WSW,245,0.0,0.0,80,0.00,,---,0.00,VWS V14.01,2013-09-11 07:20:00,
2013-09-11 02:25:00,72.2,65.7,29.92,WSW,245,0.0,0.0,80,0.00,,---,0.00,VWS V14.01,2013-09-11 07:25:00,
2013-09-11 02:30:00,72.0,65.9,29.92,WSW,245,0.0,0.0,81,0.00,,---,0.00,VWS V14.01,2013-09-11 07:30:00,
2013-09-11 02:35:00,71.7,65.6,29.92,WSW,245,0.0,0.0,81,0.00,,---,0.00,VWS V14.01,2013-09-11 07:35:00,
2013-09-11 02:40:00,71.4,65.6,29.92,WSW,245,0.0,0.0,82,0.00,,---,0.00,VWS V14.01,2013-09-11 07:40:00,
2013-09-11 02:45:00,71.1,65.3,29.92,WSW,245,0.0,0.0,82,0.00,,---,0.00,VWS V14.01,2013-09-11 07:45:00,
2013-09-11 02:50:00,70.9,65.5,29.92,WSW,245,0.0,0.0,83,0.00,,---,0.00,VWS V14.01,2013-09-11 07:50:00,
2013-09-11 02:55:00,70.6,65.5,29.92,WSW,245,0.0,0.0,84,0.00,,---,0.00,VWS V14.01,2013-09-11 07:55:00,
2013-09-11 03:00:00,70.4,65.3,29.92,WSW,245,0.0,0.0,84,0.00,,---,0.00,VWS V14.01,2013-09-11 08:00:00,
2013-09-11 03:05:00,70.1,65.4,29.92,WSW,245,0.0,0.0,85,0.00,,---,0.00,VWS V14.01,2013-09-11 08:05:00,
2013-09-11 03:10:00,69.9,65.5,29.92,WSW,245,0.0,0.0,86,0.00,,---,0.00,VWS V14.01,2013-09-11 08:10:00,
2013-09-11 03:15:00,69.8,65.4,29.92,WSW,245,0.0,0.0,86,0.00,,---,0.00,VWS V14.01,2013-09-11 08:15:00,
2013-09-11 03:20:00,69.6,65.6,29.92,WSW,245,0.0,0.0,87,0.00,,---,0.00,VWS V14.01,2013-09-11 08:20:00,
2013-09-11 03:25:00,69.4,65.4,29.92,WSW,245,0.0,0.0,87,0.00,,---,0.00,VWS V14.01,2013-09-11 08:25:00,
2013-09-11 03:30:00,69.2,65.2,29.92,WSW,245,0.0,0.0,87,0.00,,---,0.00,VWS V14.01,2013-09-11 08:30:00,
2013-09-11 03:35:00,69.1,65.4,29.92,WSW,245,0.0,0.0,88,0.00,,---,0.00,VWS V14.01,2013-09-11 08:35:00,
2013-09-11 03:40:00,68.9,65.2,29.93,WSW,245,0.0,0.0,88,0.00,,---,0.00,VWS V14.01,2013-09-11 08:40:00,
2013-09-11 03:45:00,68.8,65.1,29.93,WSW,245,0.0,0.0,88,0.00,,---,0.00,VWS V14.01,2013-09-11 08:45:00,
2013-09-11 03:50:00,68.8,65.4,29.92,WSW,245,0.0,0.0,89,0.00,,---,0.00,VWS V14.01,2013-09-11 08:50:00,
2013-09-11 03:55:00,68.7,65.3,29.93,WSW,245,0.0,0.0,89,0.00,,---,0.00,VWS V14.01,2013-09-11 08:55:00,
2013-09-11 04:00:00,68.6,65.2,29.93,WSW,245,0.0,0.0,89,0.00,,---,0.00,VWS V14.01,2013-09-11 09:00:00,
2013-09-11 04:05:00,68.5,65.1,29.93,WSW,245,0.0,0.0,89,0.00,,---,0.00,VWS V14.01,2013-09-11 09:05:00,
2013-09-11 04:10:00,68.4,65.4,29.93,WSW,245,0.0,0.0,90,0.00,,---,0.00,VWS V14.01,2013-09-11 09:10:00,
2013-09-11 04:15:00,68.3,65.3,29.93,WSW,245,0.0,0.0,90,0.00,,---,0.00,VWS V14.01,2013-09-11 09:15:00,
2013-09-11 04:20:00,68.2,65.2,29.93,WSW,245,0.0,0.0,90,0.00,,---,0.00,VWS V14.01,2013-09-11 09:20:00,
2013-09-11 04:25:00,68.1,65.1,29.92,WSW,245,0.0,0.0,90,0.00,,---,0.00,VWS V14.01,2013-09-11 09:25:00,
2013-09-11 04:30:00,68.2,65.5,29.92,WSW,250,0.0,0.0,91,0.00,,---,0.00,VWS V14.01,2013-09-11 09:30:00,
2013-09-11 04:35:00,68.2,65.5,29.92,WSW,250,0.0,0.0,91,0.00,,---,0.00,VWS V14.01,2013-09-11 09:35:00,
2013-09-11 04:40:00,68.3,65.6,29.92,WSW,250,0.0,0.0,91,0.00,,---,0.00,VWS V14.01,2013-09-11 09:40:00,
2013-09-11 04:45:00,68.2,65.5,29.92,WSW,250,0.0,0.0,91,0.00,,---,0.00,VWS V14.01,2013-09-11 09:45:00,
2013-09-11 04:50:00,68.1,65.4,29.93,WSW,250,0.0,0.0,91,0.00,,---,0.00,VWS V14.01,2013-09-11 09:50:00,
2013-09-11 04:51:00,68.0,65.3,29.92,WSW,250,0.0,0.0,91,0.00,,---,0.00,VWS V14.01,2013-09-11 09:51:00,
2013-09-11 04:55:00,68.0,65.3,29.92,WSW,250,0.0,0.0,91,0.00,,---,0.00,VWS V14.01,2013-09-11 09:55:00,
2013-09-11 04:56:00,67.9,65.2,29.93,WSW,250,0.0,0.0,91,0.00,,---,0.00,VWS V14.01,2013-09-11 09:56:00,
2013-09-11 05:00:00,67.9,65.2,29.93,WSW,250,0.0,0.0,91,0.00,,---,0.00,VWS V14.01,2013-09-11 10:00:00,
2013-09-11 05:01:00,67.8,65.4,29.93,WSW,250,0.0,0.0,92,0.00,,---,0.00,VWS V14.01,2013-09-11 10:01:00,
2013-09-11 05:05:00,67.8,65.4,29.93,WSW,250,0.0,0.0,92,0.00,,---,0.00,VWS V14.01,2013-09-11 10:05:00,
2013-09-11 05:06:00,67.8,65.4,29.93,WSW,250,0.0,0.0,92,0.00,,---,0.00,VWS V14.01,2013-09-11 10:06:00,
2013-09-11 05:10:00,67.9,65.5,29.93,WSW,250,0.0,0.0,92,0.00,,---,0.00,VWS V14.01,2013-09-11 10:10:00,
2013-09-11 05:11:00,67.8,65.4,29.93,WSW,250,0.0,0.0,92,0.00,,---,0.00,VWS V14.01,2013-09-11 10:11:00,
2013-09-11 05:15:00,67.7,65.3,29.93,WSW,250,0.0,0.0,92,0.00,,---,0.00,VWS V14.01,2013-09-11 10:15:00,
2013-09-11 05:16:00,67.6,65.2,29.93,WSW,250,0.0,0.0,92,0.00,,---,0.00,VWS V14.01,2013-09-11 10:16:00,
2013-09-11 05:20:00,67.5,65.1,29.93,WSW,250,0.0,0.0,92,0.00,,---,0.00,VWS V14.01,2013-09-11 10:20:00,
2013-09-11 05:21:00,67.5,65.1,29.93,WSW,250,0.0,0.0,92,0.00,,---,0.00,VWS V14.01,2013-09-11 10:21:00,
2013-09-11 05:25:00,67.4,65.0,29.93,WSW,250,0.0,0.0,92,0.00,,---,0.00,VWS V14.01,2013-09-11 10:25:00,
2013-09-11 05:26:00,67.4,65.0,29.93,WSW,250,0.0,0.0,92,0.00,,---,0.00,VWS V14.01,2013-09-11 10:26:00,
2013-09-11 05:30:00,67.3,65.2,29.94,WSW,250,0.0,0.0,93,0.00,,---,0.00,VWS V14.01,2013-09-11 10:30:00,
2013-09-11 05:31:00,67.3,65.2,29.94,WSW,250,0.0,0.0,93,0.00,,---,0.00,VWS V14.01,2013-09-11 10:31:00,
2013-09-11 05:35:00,67.3,65.2,29.94,WSW,250,0.0,0.0,93,0.00,,---,0.00,VWS V14.01,2013-09-11 10:35:00,
2013-09-11 05:36:00,67.3,65.2,29.94,WSW,250,0.0,0.0,93,0.00,,---,0.00,VWS V14.01,2013-09-11 10:36:00,
2013-09-11 05:40:00,67.3,65.2,29.95,WSW,250,0.0,0.0,93,0.00,,---,0.00,VWS V14.01,2013-09-11 10:40:00,
2013-09-11 05:41:00,67.4,65.6,29.95,WSW,250,0.0,0.0,94,0.00,,---,0.00,VWS V14.01,2013-09-11 10:41:00,
2013-09-11 05:45:00,67.6,65.8,29.95,WSW,250,0.0,0.0,94,0.00,,---,0.00,VWS V14.01,2013-09-11 10:45:00,
2013-09-11 05:46:00,67.7,65.9,29.96,WSW,250,0.0,0.0,94,0.00,,---,0.00,VWS V14.01,2013-09-11 10:46:00,
2013-09-11 05:50:00,67.7,65.9,29.96,WSW,250,0.0,0.0,94,0.00,,---,0.00,VWS V14.01,2013-09-11 10:50:00,
2013-09-11 05:51:00,67.7,65.9,29.96,WSW,250,0.0,0.0,94,0.00,,---,0.00,VWS V14.01,2013-09-11 10:51:00,
2013-09-11 05:55:00,67.7,65.9,29.97,WSW,250,0.0,0.0,94,0.00,,---,0.00,VWS V14.01,2013-09-11 10:55:00,
2013-09-11 05:56:00,67.8,66.0,29.98,West,281,4.0,5.0,94,0.00,,---,0.00,VWS V14.01,2013-09-11 10:56:00,
2013-09-11 06:00:00,68.1,66.3,30.02,WNW,292,4.0,12.0,94,0.00,,---,0.00,VWS V14.01,2013-09-11 11:00:00,
2013-09-11 06:01:00,68.1,66.3,30.02,WNW,282,9.0,11.0,94,0.00,,---,0.00,VWS V14.01,2013-09-11 11:01:00,
2013-09-11 06:05:00,67.9,65.8,30.00,WNW,287,5.0,11.0,93,0.00,,---,0.00,VWS V14.01,2013-09-11 11:05:00,
2013-09-11 06:06:00,68.0,65.6,30.01,West,265,0.0,7.0,92,0.00,,---,0.00,VWS V14.01,2013-09-11 11:06:00,
2013-09-11 06:10:00,68.1,65.1,30.00,West,261,5.0,7.0,90,0.00,,---,0.00,VWS V14.01,2013-09-11 11:10:00,
2013-09-11 06:11:00,68.2,64.8,30.01,West,277,3.0,6.0,89,0.00,,---,0.00,VWS V14.01,2013-09-11 11:11:00,
2013-09-11 06:15:00,68.5,64.5,29.99,NW,326,6.0,8.0,87,0.00,,---,0.00,VWS V14.01,2013-09-11 11:15:00,
2013-09-11 06:16:00,68.8,64.4,30.00,SE,128,3.0,6.0,86,0.00,,---,0.00,VWS V14.01,2013-09-11 11:16:00,
2013-09-11 06:20:00,69.1,64.4,30.00,West,261,4.0,6.0,85,0.00,,---,0.00,VWS V14.01,2013-09-11 11:20:00,
2013-09-11 06:21:00,69.2,64.2,30.00,NW,321,1.0,4.0,84,0.00,,---,0.00,VWS V14.01,2013-09-11 11:21:00,
2013-09-11 06:25:00,69.2,64.2,30.00,NW,309,7.0,7.0,84,0.00,,---,0.00,VWS V14.01,2013-09-11 11:25:00,
2013-09-11 06:26:00,69.1,64.1,30.00,WSW,244,2.0,8.0,84,0.00,,---,0.00,VWS V14.01,2013-09-11 11:26:00,
2013-09-11 06:30:00,69.0,64.3,30.00,NNW,329,3.0,8.0,85,0.00,,---,0.00,VWS V14.01,2013-09-11 11:30:00,
2013-09-11 06:31:00,68.7,64.0,29.99,SSW,210,3.0,3.0,85,0.00,,---,0.00,VWS V14.01,2013-09-11 11:31:00,
2013-09-11 06:35:00,68.5,64.2,29.99,East,79,1.0,3.0,86,0.00,,---,0.00,VWS V14.01,2013-09-11 11:35:00,
2013-09-11 06:36:00,68.3,64.0,29.99,North,5,2.0,6.0,86,0.00,,---,0.00,VWS V14.01,2013-09-11 11:36:00,
2013-09-11 06:40:00,68.1,64.1,29.98,East,80,0.0,6.0,87,0.00,,---,0.00,VWS V14.01,2013-09-11 11:40:00,
2013-09-11 06:41:00,68.0,64.0,29.98,WSW,238,0.0,1.0,87,0.00,,---,0.00,VWS V14.01,2013-09-11 11:41:00,
2013-09-11 06:45:00,67.7,63.7,29.98,East,80,1.0,2.0,87,0.00,,---,0.00,VWS V14.01,2013-09-11 11:45:00,
2013-09-11 06:46:00,67.6,63.6,29.98,East,80,0.0,2.0,87,0.00,,---,0.00,VWS V14.01,2013-09-11 11:46:00,
2013-09-11 06:50:00,67.5,63.8,29.98,WNW,300,0.0,2.0,88,0.00,,---,0.00,VWS V14.01,2013-09-11 11:50:00,
2013-09-11 06:51:00,67.4,63.7,29.98,WNW,300,0.0,0.0,88,0.00,,---,0.00,VWS V14.01,2013-09-11 11:51:00,
2013-09-11 06:55:00,67.3,63.6,29.98,WNW,300,0.0,1.0,88,0.00,,---,0.00,VWS V14.01,2013-09-11 11:55:00,
2013-09-11 06:56:00,67.2,63.5,29.99,WNW,300,0.0,0.0,88,0.00,,---,0.00,VWS V14.01,2013-09-11 11:56:00,
2013-09-11 07:00:00,67.1,63.8,29.99,WNW,300,0.0,0.0,89,0.00,,---,0.00,VWS V14.01,2013-09-11 12:00:00,
2013-09-11 07:01:00,67.1,63.8,29.99,WNW,300,0.0,0.0,89,0.00,,---,0.00,VWS V14.01,2013-09-11 12:01:00,
2013-09-11 07:05:00,67.0,63.7,29.99,WNW,300,0.0,0.0,89,0.00,,---,0.00,VWS V14.01,2013-09-11 12:05:00,
2013-09-11 07:06:00,67.0,63.7,29.98,WNW,300,0.0,1.0,89,0.00,,---,0.00,VWS V14.01,2013-09-11 12:06:00,
2013-09-11 07:10:00,66.9,63.9,29.99,WNW,300,0.0,1.0,90,0.00,,---,0.00,VWS V14.01,2013-09-11 12:10:00,
2013-09-11 07:11:00,66.8,63.8,29.99,WNW,300,0.0,0.0,90,0.00,,---,0.00,VWS V14.01,2013-09-11 12:11:00,
2013-09-11 07:15:00,66.8,63.8,29.99,WNW,300,0.0,1.0,90,0.01,,---,0.01,VWS V14.01,2013-09-11 12:15:00,
2013-09-11 07:16:00,66.7,63.7,29.99,WNW,300,0.0,0.0,90,0.01,,---,0.01,VWS V14.01,2013-09-11 12:16:00,
2013-09-11 07:20:00,66.6,63.9,29.99,WNW,300,0.0,0.0,91,0.01,,---,0.01,VWS V14.01,2013-09-11 12:20:00,
2013-09-11 07:21:00,66.6,63.9,29.99,WNW,300,0.0,0.0,91,0.01,,---,0.01,VWS V14.01,2013-09-11 12:21:00,
2013-09-11 07:25:00,66.5,63.8,29.98,WNW,300,0.0,0.0,91,0.01,,---,0.01,VWS V14.01,2013-09-11 12:25:00,
2013-09-11 07:26:00,66.4,63.7,29.98,WNW,300,0.0,0.0,91,0.01,,---,0.01,VWS V14.01,2013-09-11 12:26:00,
2013-09-11 07:30:00,66.3,63.9,29.98,WNW,300,0.0,0.0,92,0.01,,---,0.01,VWS V14.01,2013-09-11 12:30:00,
2013-09-11 07:31:00,66.3,63.9,29.97,WNW,300,1.0,2.0,92,0.01,,---,0.01,VWS V14.01,2013-09-11 12:31:00,
2013-09-11 07:35:00,66.2,63.8,29.96,East,82,3.0,3.0,92,0.02,,---,0.02,VWS V14.01,2013-09-11 12:35:00,
2013-09-11 07:36:00,66.2,63.8,29.96,East,82,0.0,3.0,92,0.02,,---,0.02,VWS V14.01,2013-09-11 12:36:00,
2013-09-11 07:40:00,66.0,63.6,29.96,East,82,0.0,3.0,92,0.02,,---,0.02,VWS V14.01,2013-09-11 12:40:00,
2013-09-11 07:41:00,66.0,63.9,29.97,SE,146,0.0,2.0,93,0.02,,---,0.02,VWS V14.01,2013-09-11 12:41:00,
2013-09-11 07:45:00,65.9,63.8,29.97,SE,146,0.0,2.0,93,0.02,,---,0.02,VWS V14.01,2013-09-11 12:45:00,
2013-09-11 07:46:00,66.0,63.9,29.96,SE,146,0.0,2.0,93,0.03,,---,0.03,VWS V14.01,2013-09-11 12:46:00,
2013-09-11 07:50:00,65.9,63.8,29.95,SE,146,0.0,2.0,93,0.03,,---,0.03,VWS V14.01,2013-09-11 12:50:00,
2013-09-11 07:51:00,65.9,63.8,29.96,SE,146,1.0,1.0,93,0.03,,---,0.03,VWS V14.01,2013-09-11 12:51:00,
2013-09-11 07:55:00,65.8,63.7,29.97,SSE,147,0.0,2.0,93,0.03,,---,0.03,VWS V14.01,2013-09-11 12:55:00,
2013-09-11 07:56:00,65.8,63.7,29.97,SSE,147,0.0,0.0,93,0.03,,---,0.03,VWS V14.01,2013-09-11 12:56:00,
2013-09-11 08:00:00,65.8,64.0,29.96,SSE,147,0.0,0.0,94,0.03,,---,0.03,VWS V14.01,2013-09-11 13:00:00,
2013-09-11 08:01:00,65.8,63.7,29.96,SSE,147,0.0,0.0,93,0.03,,---,0.03,VWS V14.01,2013-09-11 13:01:00,
2013-09-11 08:05:00,65.8,64.0,29.96,SSE,147,0.0,0.0,94,0.03,,---,0.03,VWS V14.01,2013-09-11 13:05:00,
2013-09-11 08:06:00,65.8,64.0,29.96,SSE,147,0.0,0.0,94,0.03,,---,0.03,VWS V14.01,2013-09-11 13:06:00,
2013-09-11 08:10:00,65.8,64.0,29.97,SSE,147,0.0,0.0,94,0.03,,---,0.03,VWS V14.01,2013-09-11 13:10:00,
2013-09-11 08:11:00,65.8,64.0,29.97,SSE,147,0.0,0.0,94,0.03,,---,0.03,VWS V14.01,2013-09-11 13:11:00,
2013-09-11 08:15:00,65.9,64.1,29.97,SSE,147,0.0,0.0,94,0.03,,---,0.03,VWS V14.01,2013-09-11 13:15:00,
2013-09-11 08:16:00,65.9,64.1,29.97,SSE,147,0.0,0.0,94,0.02,,---,0.03,VWS V14.01,2013-09-11 13:16:00,
2013-09-11 08:20:00,66.1,64.6,29.97,SSE,147,0.0,0.0,95,0.02,,---,0.03,VWS V14.01,2013-09-11 13:20:00,
2013-09-11 08:21:00,66.1,64.6,29.97,SSE,147,0.0,0.0,95,0.02,,---,0.03,VWS V14.01,2013-09-11 13:21:00,
2013-09-11 08:25:00,66.2,64.7,29.97,SSE,147,0.0,1.0,95,0.02,,---,0.03,VWS V14.01,2013-09-11 13:25:00,
2013-09-11 08:26:00,66.2,64.7,29.98,SSE,147,0.0,0.0,95,0.02,,---,0.03,VWS V14.01,2013-09-11 13:26:00,
2013-09-11 08:30:00,66.3,64.8,29.98,SSE,147,0.0,0.0,95,0.02,,---,0.03,VWS V14.01,2013-09-11 13:30:00,
2013-09-11 08:31:00,66.4,64.9,29.98,SSE,147,1.0,1.0,95,0.02,,---,0.03,VWS V14.01,2013-09-11 13:31:00,
2013-09-11 08:35:00,66.4,64.9,29.97,SSE,147,0.0,1.0,95,0.02,,---,0.03,VWS V14.01,2013-09-11 13:35:00,
2013-09-11 08:36:00,66.5,65.0,29.97,SSE,147,1.0,1.0,95,0.01,,---,0.03,VWS V14.01,2013-09-11 13:36:00,
2013-09-11 08:40:00,66.5,65.0,29.97,SSE,147,1.0,2.0,95,0.01,,---,0.03,VWS V14.01,2013-09-11 13:40:00,
2013-09-11 08:41:00,66.5,65.0,29.97,SSE,147,0.0,2.0,95,0.01,,---,0.03,VWS V14.01,2013-09-11 13:41:00,
2013-09-11 08:45:00,66.5,65.0,29.97,SSE,147,2.0,3.0,95,0.01,,---,0.03,VWS V14.01,2013-09-11 13:45:00,
2013-09-11 08:46:00,66.5,65.0,29.96,SSE,147,0.0,2.0,95,0.01,,---,0.03,VWS V14.01,2013-09-11 13:46:00,
2013-09-11 08:50:00,66.5,65.0,29.96,SW,225,1.0,4.0,95,0.01,,---,0.03,VWS V14.01,2013-09-11 13:50:00,
2013-09-11 08:51:00,66.5,65.0,29.96,SW,225,1.0,2.0,95,0.00,,---,0.03,VWS V14.01,2013-09-11 13:51:00,
2013-09-11 08:55:00,66.4,64.9,29.96,SW,225,1.0,2.0,95,0.00,,---,0.03,VWS V14.01,2013-09-11 13:55:00,
2013-09-11 08:56:00,66.4,64.9,29.96,SW,225,0.0,1.0,95,0.00,,---,0.03,VWS V14.01,2013-09-11 13:56:00,
2013-09-11 09:00:00,66.4,64.9,29.96,SW,225,1.0,2.0,95,0.00,,---,0.03,VWS V14.01,2013-09-11 14:00:00,
2013-09-11 09:01:00,66.5,65.0,29.96,SW,225,2.0,2.0,95,0.00,,---,0.03,VWS V14.01,2013-09-11 14:01:00,
2013-09-11 09:05:00,66.6,65.1,29.97,SW,225,0.0,3.0,95,0.00,,---,0.03,VWS V14.01,2013-09-11 14:05:00,
2013-09-11 09:06:00,66.8,65.3,29.97,SW,225,2.0,2.0,95,0.00,,---,0.03,VWS V14.01,2013-09-11 14:06:00,
2013-09-11 09:10:00,66.8,65.3,29.97,SW,225,0.0,4.0,95,0.00,,---,0.03,VWS V14.01,2013-09-11 14:10:00,
2013-09-11 09:11:00,66.9,65.4,29.97,SW,225,0.0,0.0,95,0.00,,---,0.03,VWS V14.01,2013-09-11 14:11:00,
2013-09-11 09:15:00,67.0,65.5,29.97,SW,225,0.0,1.0,95,0.00,,---,0.03,VWS V14.01,2013-09-11 14:15:00,
2013-09-11 09:16:00,67.1,65.6,29.97,SW,225,0.0,1.0,95,0.00,,---,0.03,VWS V14.01,2013-09-11 14:16:00,
2013-09-11 09:20:00,67.2,65.7,29.97,SW,225,0.0,1.0,95,0.00,,---,0.03,VWS V14.01,2013-09-11 14:20:00,
2013-09-11 09:21:00,67.4,65.9,29.97,SW,225,0.0,0.0,95,0.00,,---,0.03,VWS V14.01,2013-09-11 14:21:00,
2013-09-11 09:25:00,67.6,66.1,29.97,SW,225,0.0,2.0,95,0.00,,---,0.03,VWS V14.01,2013-09-11 14:25:00,
2013-09-11 09:26:00,67.8,66.3,29.97,SW,225,0.0,2.0,95,0.00,,---,0.03,VWS V14.01,2013-09-11 14:26:00,
2013-09-11 09:30:00,68.2,66.7,29.97,SW,224,3.0,4.0,95,0.00,,---,0.03,VWS V14.01,2013-09-11 14:30:00,
2013-09-11 09:31:00,68.5,67.0,29.97,SW,223,3.0,4.0,95,0.00,,---,0.03,VWS V14.01,2013-09-11 14:31:00,
2013-09-11 09:35:00,68.8,67.3,29.97,SW,223,3.0,4.0,95,0.00,,---,0.03,VWS V14.01,2013-09-11 14:35:00,
2013-09-11 09:36:00,69.0,67.2,29.97,SW,223,4.0,4.0,94,0.00,,---,0.03,VWS V14.01,2013-09-11 14:36:00,
2013-09-11 09:40:00,69.2,67.4,29.97,SW,219,0.0,5.0,94,0.00,,---,0.03,VWS V14.01,2013-09-11 14:40:00,
2013-09-11 09:41:00,69.3,67.2,29.97,SW,234,4.0,4.0,93,0.00,,---,0.03,VWS V14.01,2013-09-11 14:41:00,
2013-09-11 09:45:00,69.3,67.2,29.97,SW,229,4.0,4.0,93,0.00,,---,0.03,VWS V14.01,2013-09-11 14:45:00,
2013-09-11 09:46:00,69.4,67.3,29.97,SW,225,5.0,5.0,93,0.00,,---,0.03,VWS V14.01,2013-09-11 14:46:00,
2013-09-11 09:50:00,69.5,67.4,29.97,SW,225,2.0,5.0,93,0.00,,---,0.03,VWS V14.01,2013-09-11 14:50:00,
2013-09-11 09:51:00,69.5,67.4,29.96,SSW,207,0.0,5.0,93,0.00,,---,0.03,VWS V14.01,2013-09-11 14:51:00,
2013-09-11 09:55:00,69.4,67.0,29.96,WSW,245,3.0,5.0,92,0.00,,---,0.03,VWS V14.01,2013-09-11 14:55:00,
2013-09-11 09:56:00,69.6,67.2,29.96,SW,230,6.0,7.0,92,0.00,,---,0.03,VWS V14.01,2013-09-11 14:56:00,
2013-09-11 10:00:00,69.8,67.7,29.96,SW,223,4.0,7.0,93,0.00,,---,0.03,VWS V14.01,2013-09-11 15:00:00,
2013-09-11 10:01:00,70.2,68.1,29.96,SW,232,5.0,7.0,93,0.00,,---,0.03,VWS V14.01,2013-09-11 15:01:00,
2013-09-11 10:05:00,70.4,68.0,29.96,SSW,209,4.0,9.0,92,0.00,,---,0.03,VWS V14.01,2013-09-11 15:05:00,
2013-09-11 10:06:00,70.6,67.8,29.97,SSW,211,4.0,8.0,91,0.00,,---,0.03,VWS V14.01,2013-09-11 15:06:00,
2013-09-11 10:10:00,70.7,67.6,29.97,SW,216,2.0,8.0,90,0.00,,---,0.03,VWS V14.01,2013-09-11 15:10:00,
2013-09-11 10:11:00,70.9,67.8,29.97,SSW,198,4.0,5.0,90,0.00,,---,0.03,VWS V14.01,2013-09-11 15:11:00,
2013-09-11 10:15:00,70.9,67.2,29.97,WSW,253,4.0,8.0,88,0.00,,---,0.03,VWS V14.01,2013-09-11 15:15:00,
2013-09-11 10:16:00,70.8,67.1,29.98,SW,227,8.0,8.0,88,0.00,,---,0.03,VWS V14.01,2013-09-11 15:16:00,
2013-09-11 10:20:00,70.8,66.7,29.98,South,190,6.0,8.0,87,0.00,,---,0.03,VWS V14.01,2013-09-11 15:20:00,
2013-09-11 10:21:00,70.7,66.7,29.98,SW,222,5.0,8.0,87,0.00,,---,0.03,VWS V14.01,2013-09-11 15:21:00,
2013-09-11 10:25:00,70.7,66.7,29.98,SSW,211,3.0,8.0,87,0.00,,---,0.03,VWS V14.01,2013-09-11 15:25:00,
2013-09-11 10:26:00,70.7,66.7,29.98,SW,225,4.0,4.0,87,0.00,,---,0.03,VWS V14.01,2013-09-11 15:26:00,
2013-09-11 10:30:00,70.7,66.7,29.98,SW,230,4.0,6.0,87,0.00,,---,0.03,VWS V14.01,2013-09-11 15:30:00,
2013-09-11 10:31:00,70.6,66.6,29.98,SW,228,4.0,7.0,87,0.00,,---,0.03,VWS V14.01,2013-09-11 15:31:00,
2013-09-11 10:35:00,70.6,66.2,29.98,WSW,239,7.0,8.0,86,0.00,,---,0.03,VWS V14.01,2013-09-11 15:35:00,
2013-09-11 10:36:00,70.5,66.1,29.98,SW,232,3.0,7.0,86,0.00,,---,0.03,VWS V14.01,2013-09-11 15:36:00,
2013-09-11 10:40:00,70.6,66.2,29.98,SW,228,2.0,7.0,86,0.00,,---,0.03,VWS V14.01,2013-09-11 15:40:00,
2013-09-11 10:41:00,70.6,66.2,29.98,SW,227,4.0,6.0,86,0.00,,---,0.03,VWS V14.01,2013-09-11 15:41:00,
2013-09-11 10:45:00,70.6,66.2,29.98,SW,232,2.0,6.0,86,0.00,,---,0.03,VWS V14.01,2013-09-11 15:45:00,
2013-09-11 10:46:00,70.8,66.7,29.98,SSW,213,3.0,5.0,87,0.00,,---,0.03,VWS V14.01,2013-09-11 15:46:00,
2013-09-11 10:50:00,70.9,66.8,29.98,WSW,247,3.0,6.0,87,0.00,,---,0.03,VWS V14.01,2013-09-11 15:50:00,
2013-09-11 10:51:00,71.1,67.0,29.99,SW,215,1.0,3.0,87,0.00,,---,0.03,VWS V14.01,2013-09-11 15:51:00,
2013-09-11 10:55:00,71.3,66.9,29.99,SW,236,1.0,7.0,86,0.00,,---,0.03,VWS V14.01,2013-09-11 15:55:00,
2013-09-11 10:56:00,71.4,67.0,29.98,SW,234,2.0,7.0,86,0.00,,---,0.03,VWS V14.01,2013-09-11 15:56:00,
2013-09-11 11:00:00,71.6,67.2,29.98,SW,226,7.0,7.0,86,0.00,,---,0.03,VWS V14.01,2013-09-11 16:00:00,
2013-09-11 11:01:00,71.8,67.4,29.98,SW,236,4.0,7.0,86,0.00,,---,0.03,VWS V14.01,2013-09-11 16:01:00,
2013-09-11 11:05:00,72.0,67.2,29.98,SW,229,1.0,7.0,85,0.00,,---,0.03,VWS V14.01,2013-09-11 16:05:00,
2013-09-11 11:06:00,72.2,67.1,29.98,SW,216,2.0,5.0,84,0.00,,---,0.03,VWS V14.01,2013-09-11 16:06:00,
2013-09-11 11:10:00,72.4,67.3,29.98,SW,220,1.0,6.0,84,0.00,,---,0.03,VWS V14.01,2013-09-11 16:10:00,
2013-09-11 11:11:00,72.5,67.4,29.98,SW,228,3.0,5.0,84,0.00,,---,0.03,VWS V14.01,2013-09-11 16:11:00,
2013-09-11 11:15:00,72.6,67.2,29.98,WSW,251,4.0,6.0,83,0.00,,---,0.03,VWS V14.01,2013-09-11 16:15:00,
2013-09-11 11:19:00,72.8,67.0,29.98,WSW,241,3.0,9.0,82,0.00,,---,0.03,VWS V14.01,2013-09-11 16:19:00,
2013-09-11 11:20:00,72.8,67.0,29.98,WSW,241,3.0,9.0,82,0.00,,---,0.03,VWS V14.01,2013-09-11 16:20:00,
2013-09-11 11:24:00,73.0,66.8,29.98,WSW,248,2.0,10.0,81,0.00,,---,0.03,VWS V14.01,2013-09-11 16:24:00,
2013-09-11 11:25:00,73.0,66.8,29.98,WSW,248,2.0,10.0,81,0.00,,---,0.03,VWS V14.01,2013-09-11 16:25:00,
2013-09-11 11:29:00,73.0,66.8,29.98,WSW,247,2.0,5.0,81,0.00,,---,0.03,VWS V14.01,2013-09-11 16:29:00,
2013-09-11 11:30:00,73.0,66.8,29.98,WSW,247,2.0,5.0,81,0.00,,---,0.03,VWS V14.01,2013-09-11 16:30:00,
2013-09-11 11:35:00,72.8,66.6,29.99,WSW,254,7.0,8.0,81,0.00,,---,0.03,VWS V14.01,2013-09-11 16:35:00,
2013-09-11 11:37:00,72.7,66.5,29.99,WSW,249,2.0,7.0,81,0.00,,---,0.03,VWS V14.01,2013-09-11 16:37:00,
2013-09-11 11:40:00,72.7,66.9,29.99,WSW,240,4.0,7.0,82,0.00,,---,0.03,VWS V14.01,2013-09-11 16:40:00,
2013-09-11 11:42:00,72.8,67.0,29.99,SW,236,3.0,5.0,82,0.00,,---,0.03,VWS V14.01,2013-09-11 16:42:00,
2013-09-11 11:45:00,72.8,67.0,29.98,WSW,258,7.0,7.0,82,0.00,,---,0.03,VWS V14.01,2013-09-11 16:45:00,
2013-09-11 11:47:00,72.9,66.7,29.98,West,268,5.0,8.0,81,0.00,,---,0.03,VWS V14.01,2013-09-11 16:47:00,
2013-09-11 11:50:00,72.9,66.7,29.98,SW,232,9.0,9.0,81,0.00,,---,0.03,VWS V14.01,2013-09-11 16:50:00,
2013-09-11 11:52:00,73.0,66.8,29.98,West,261,6.0,9.0,81,0.00,,---,0.03,VWS V14.01,2013-09-11 16:52:00,
2013-09-11 11:55:00,73.1,66.9,29.98,WSW,252,4.0,9.0,81,0.00,,---,0.03,VWS V14.01,2013-09-11 16:55:00,
2013-09-11 11:57:00,73.1,66.9,29.99,West,273,5.0,6.0,81,0.00,,---,0.03,VWS V14.01,2013-09-11 16:57:00,
2013-09-11 12:00:00,73.2,67.0,29.99,WSW,256,3.0,8.0,81,0.00,,---,0.03,VWS V14.01,2013-09-11 17:00:00,
2013-09-11 12:02:00,73.3,67.1,29.98,WSW,257,5.0,7.0,81,0.00,,---,0.03,VWS V14.01,2013-09-11 17:02:00,
2013-09-11 12:05:00,73.3,66.8,29.98,West,263,6.0,7.0,80,0.00,,---,0.03,VWS V14.01,2013-09-11 17:05:00,
2013-09-11 12:07:00,73.4,66.9,29.98,West,265,1.0,7.0,80,0.00,,---,0.03,VWS V14.01,2013-09-11 17:07:00,
2013-09-11 12:10:00,73.4,66.5,29.98,WNW,292,7.0,8.0,79,0.00,,---,0.03,VWS V14.01,2013-09-11 17:10:00,
2013-09-11 12:12:00,73.4,66.5,29.99,WSW,242,4.0,7.0,79,0.00,,---,0.03,VWS V14.01,2013-09-11 17:12:00,
2013-09-11 12:15:00,73.4,66.9,29.99,SSW,213,4.0,7.0,80,0.00,,---,0.03,VWS V14.01,2013-09-11 17:15:00,
2013-09-11 12:17:00,73.6,67.1,29.98,WSW,253,3.0,5.0,80,0.00,,---,0.03,VWS V14.01,2013-09-11 17:17:00,
2013-09-11 12:20:00,73.7,67.2,29.98,West,265,2.0,5.0,80,0.00,,---,0.03,VWS V14.01,2013-09-11 17:20:00,
2013-09-11 12:22:00,73.8,66.9,29.99,West,273,6.0,7.0,79,0.00,,---,0.03,VWS V14.01,2013-09-11 17:22:00,
2013-09-11 12:25:00,73.8,66.5,29.99,WSW,250,4.0,9.0,78,0.00,,---,0.03,VWS V14.01,2013-09-11 17:25:00,
2013-09-11 12:27:00,74.0,67.1,29.98,WSW,250,5.0,7.0,79,0.00,,---,0.03,VWS V14.01,2013-09-11 17:27:00,
2013-09-11 12:30:00,74.0,66.7,29.98,SW,234,2.0,7.0,78,0.00,,---,0.03,VWS V14.01,2013-09-11 17:30:00,
2013-09-11 12:32:00,74.3,67.0,29.98,SSW,210,3.0,9.0,78,0.00,,---,0.03,VWS V14.01,2013-09-11 17:32:00,
2013-09-11 12:35:00,74.4,67.1,29.98,SW,232,5.0,9.0,78,0.00,,---,0.03,VWS V14.01,2013-09-11 17:35:00,
2013-09-11 12:37:00,74.7,67.4,29.98,SW,236,3.0,6.0,78,0.00,,---,0.03,VWS V14.01,2013-09-11 17:37:00,
2013-09-11 12:40:00,74.8,67.5,29.98,SSW,212,5.0,6.0,78,0.00,,---,0.03,VWS V14.01,2013-09-11 17:40:00,
2013-09-11 12:42:00,75.0,66.9,29.99,WNW,288,3.0,6.0,76,0.00,,---,0.03,VWS V14.01,2013-09-11 17:42:00,
2013-09-11 12:45:00,75.1,67.4,29.98,SW,232,7.0,7.0,77,0.00,,---,0.03,VWS V14.01,2013-09-11 17:45:00,
2013-09-11 12:47:00,75.4,67.7,29.98,SW,236,4.0,7.0,77,0.00,,---,0.03,VWS V14.01,2013-09-11 17:47:00,
2013-09-11 12:50:00,75.8,68.1,29.98,West,273,4.0,7.0,77,0.00,,---,0.03,VWS V14.01,2013-09-11 17:50:00,
2013-09-11 12:52:00,76.3,68.2,29.98,SSW,212,5.0,7.0,76,0.00,,---,0.03,VWS V14.01,2013-09-11 17:52:00,
2013-09-11 12:55:00,76.6,68.1,29.98,WSW,240,1.0,7.0,75,0.00,,---,0.03,VWS V14.01,2013-09-11 17:55:00,
2013-09-11 12:57:00,76.8,67.5,29.98,WSW,242,5.0,8.0,73,0.00,,---,0.03,VWS V14.01,2013-09-11 17:57:00,
2013-09-11 13:00:00,76.9,68.0,29.98,SW,223,3.0,8.0,74,0.00,,---,0.03,VWS V14.01,2013-09-11 18:00:00,
2013-09-11 13:02:00,77.1,67.4,29.98,WSW,250,3.0,7.0,72,0.00,,---,0.03,VWS V14.01,2013-09-11 18:02:00,
2013-09-11 13:05:00,77.1,67.4,29.98,SW,234,6.0,8.0,72,0.00,,---,0.03,VWS V14.01,2013-09-11 18:05:00,
2013-09-11 13:07:00,77.0,66.9,29.98,SW,236,6.0,10.0,71,0.00,,---,0.03,VWS V14.01,2013-09-11 18:07:00,
2013-09-11 13:10:00,77.0,67.3,29.98,SW,215,5.0,10.0,72,0.00,,---,0.03,VWS V14.01,2013-09-11 18:10:00,
2013-09-11 13:12:00,77.0,67.7,29.98,WSW,237,4.0,9.0,73,0.00,,---,0.03,VWS V14.01,2013-09-11 18:12:00,
2013-09-11 13:15:00,77.1,67.4,29.98,West,278,3.0,9.0,72,0.00,,---,0.03,VWS V14.01,2013-09-11 18:15:00,
2013-09-11 13:17:00,77.1,67.8,29.98,SSW,211,5.0,5.0,73,0.00,,---,0.03,VWS V14.01,2013-09-11 18:17:00,
2013-09-11 13:20:00,77.3,68.0,29.98,WSW,250,6.0,6.0,73,0.00,,---,0.03,VWS V14.01,2013-09-11 18:20:00,
2013-09-11 13:22:00,77.3,67.6,29.98,West,278,8.0,9.0,72,0.00,,---,0.03,VWS V14.01,2013-09-11 18:22:00,
2013-09-11 13:25:00,77.2,67.9,29.98,SW,223,2.0,9.0,73,0.00,,---,0.03,VWS V14.01,2013-09-11 18:25:00,
2013-09-11 13:27:00,77.5,68.6,29.98,SSW,213,4.0,6.0,74,0.00,,---,0.03,VWS V14.01,2013-09-11 18:27:00,
2013-09-11 13:30:00,77.7,68.4,29.98,SSW,207,1.0,8.0,73,0.00,,---,0.03,VWS V14.01,2013-09-11 18:30:00,
2013-09-11 13:32:00,78.1,68.8,29.97,SW,219,3.0,8.0,73,0.00,,---,0.03,VWS V14.01,2013-09-11 18:32:00,
2013-09-11 13:35:00,78.3,68.9,29.97,SW,227,5.0,9.0,73,0.00,,---,0.03,VWS V14.01,2013-09-11 18:35:00,
2013-09-11 13:37:00,78.7,68.1,29.97,SW,222,7.0,8.0,70,0.00,,---,0.03,VWS V14.01,2013-09-11 18:37:00,
2013-09-11 13:40:00,78.9,68.3,29.97,SSW,196,1.0,8.0,70,0.00,,---,0.03,VWS V14.01,2013-09-11 18:40:00,
2013-09-11 13:42:00,79.1,68.5,29.97,SSW,202,7.0,12.0,70,0.00,,---,0.03,VWS V14.01,2013-09-11 18:42:00,
2013-09-11 13:45:00,79.1,68.1,29.97,West,270,5.0,12.0,69,0.00,,---,0.03,VWS V14.01,2013-09-11 18:45:00,
2013-09-11 13:47:00,79.0,68.0,29.97,SW,223,2.0,10.0,69,0.00,,---,0.03,VWS V14.01,2013-09-11 18:47:00,
2013-09-11 13:50:00,79.1,68.1,29.97,SW,226,2.0,10.0,69,0.00,,---,0.03,VWS V14.01,2013-09-11 18:50:00,
2013-09-11 13:52:00,79.3,68.3,29.97,WSW,246,2.0,11.0,69,0.00,,---,0.03,VWS V14.01,2013-09-11 18:52:00,
2013-09-11 13:55:00,79.4,67.9,29.97,WSW,241,9.0,11.0,68,0.00,,---,0.03,VWS V14.01,2013-09-11 18:55:00,
2013-09-11 13:57:00,79.7,68.2,29.97,West,272,2.0,9.0,68,0.00,,---,0.03,VWS V14.01,2013-09-11 18:57:00,
2013-09-11 14:00:00,79.8,68.3,29.97,SW,230,3.0,9.0,68,0.00,,---,0.03,VWS V14.01,2013-09-11 19:00:00,
2013-09-11 14:02:00,80.1,68.2,29.97,SW,236,0.0,7.0,67,0.00,,---,0.03,VWS V14.01,2013-09-11 19:02:00,
2013-09-11 14:05:00,80.3,68.3,29.97,SW,223,2.0,7.0,67,0.00,,---,0.03,VWS V14.01,2013-09-11 19:05:00,
2013-09-11 14:07:00,80.6,69.1,29.96,WSW,238,5.0,8.0,68,0.00,,---,0.03,VWS V14.01,2013-09-11 19:07:00,
2013-09-11 14:10:00,80.8,67.9,29.96,WSW,251,4.0,11.0,65,0.00,,---,0.03,VWS V14.01,2013-09-11 19:10:00,
2013-09-11 14:12:00,80.6,67.8,29.96,WSW,244,2.0,9.0,65,0.00,,---,0.03,VWS V14.01,2013-09-11 19:12:00,
2013-09-11 14:15:00,80.4,68.0,29.96,SSW,205,5.0,9.0,66,0.00,,---,0.03,VWS V14.01,2013-09-11 19:15:00,
2013-09-11 14:17:00,80.5,68.5,29.96,SW,225,3.0,5.0,67,0.00,,---,0.03,VWS V14.01,2013-09-11 19:17:00,
2013-09-11 14:20:00,80.7,68.3,29.96,SSW,209,5.0,7.0,66,0.00,,---,0.03,VWS V14.01,2013-09-11 19:20:00,
2013-09-11 14:22:00,81.0,68.6,29.96,WSW,237,2.0,7.0,66,0.00,,---,0.03,VWS V14.01,2013-09-11 19:22:00,
2013-09-11 14:25:00,81.2,68.3,29.96,SE,134,3.0,7.0,65,0.00,,---,0.03,VWS V14.01,2013-09-11 19:25:00,
2013-09-11 14:27:00,81.5,68.2,29.96,SW,223,6.0,10.0,64,0.00,,---,0.03,VWS V14.01,2013-09-11 19:27:00,
2013-09-11 14:30:00,81.6,68.2,29.96,SSW,196,6.0,10.0,64,0.00,,---,0.03,VWS V14.01,2013-09-11 19:30:00,
2013-09-11 14:32:00,81.7,67.9,29.96,SSW,209,3.0,10.0,63,0.00,,---,0.03,VWS V14.01,2013-09-11 19:32:00,
2013-09-11 14:35:00,81.8,68.0,29.96,SW,232,2.0,10.0,63,0.00,,---,0.03,VWS V14.01,2013-09-11 19:35:00,
2013-09-11 14:37:00,81.9,67.1,29.96,SSW,195,2.0,9.0,61,0.00,,---,0.03,VWS V14.01,2013-09-11 19:37:00,
2013-09-11 14:40:00,81.9,67.1,29.96,SSW,195,0.0,9.0,61,0.00,,---,0.03,VWS V14.01,2013-09-11 19:40:00,
2013-09-11 14:42:00,81.8,67.5,29.95,SSW,205,5.0,10.0,62,0.00,,---,0.03,VWS V14.01,2013-09-11 19:42:00,
2013-09-11 14:45:00,81.7,66.9,29.95,SSW,205,6.0,10.0,61,0.00,,---,0.03,VWS V14.01,2013-09-11 19:45:00,
2013-09-11 14:47:00,81.6,67.3,29.96,West,261,7.0,7.0,62,0.00,,---,0.03,VWS V14.01,2013-09-11 19:47:00,
2013-09-11 14:50:00,81.4,66.7,29.96,SW,224,4.0,9.0,61,0.00,,---,0.03,VWS V14.01,2013-09-11 19:50:00,
2013-09-11 14:52:00,81.4,66.7,29.96,SW,218,6.0,9.0,61,0.00,,---,0.03,VWS V14.01,2013-09-11 19:52:00,
2013-09-11 14:55:00,81.4,66.7,29.95,SW,235,7.0,11.0,61,0.00,,---,0.03,VWS V14.01,2013-09-11 19:55:00,
2013-09-11 14:57:00,81.6,67.3,29.96,WSW,246,4.0,9.0,62,0.00,,---,0.03,VWS V14.01,2013-09-11 19:57:00,
2013-09-11 15:00:00,81.6,66.9,29.95,West,261,6.0,9.0,61,0.00,,---,0.03,VWS V14.01,2013-09-11 20:00:00,
2013-09-11 15:02:00,81.5,67.2,29.95,SW,220,3.0,7.0,62,0.00,,---,0.03,VWS V14.01,2013-09-11 20:02:00,
2013-09-11 15:05:00,81.5,67.2,29.95,WSW,237,8.0,8.0,62,0.00,,---,0.03,VWS V14.01,2013-09-11 20:05:00,
2013-09-11 15:07:00,81.5,66.8,29.95,West,273,4.0,10.0,61,0.00,,---,0.03,VWS V14.01,2013-09-11 20:07:00,
2013-09-11 15:10:00,81.4,66.7,29.95,SW,223,3.0,10.0,61,0.00,,---,0.03,VWS V14.01,2013-09-11 20:10:00,
2013-09-11 15:12:00,81.5,66.8,29.95,WSW,251,5.0,8.0,61,0.00,,---,0.03,VWS V14.01,2013-09-11 20:12:00,
2013-09-11 15:15:00,81.4,66.2,29.95,SW,232,11.0,11.0,60,0.00,,---,0.03,VWS V14.01,2013-09-11 20:15:00,
2013-09-11 15:17:00,81.2,66.5,29.95,WSW,246,1.0,11.0,61,0.00,,---,0.03,VWS V14.01,2013-09-11 20:17:00,
2013-09-11 15:20:00,81.3,66.6,29.95,WSW,258,5.0,11.0,61,0.00,,---,0.03,VWS V14.01,2013-09-11 20:20:00,
2013-09-11 15:22:00,81.8,66.6,29.94,SSW,192,4.0,8.0,60,0.00,,---,0.03,VWS V14.01,2013-09-11 20:22:00,
2013-09-11 15:25:00,82.0,66.8,29.94,WSW,246,2.0,8.0,60,0.00,,---,0.03,VWS V14.01,2013-09-11 20:25:00,
2013-09-11 15:27:00,82.3,67.5,29.94,West,267,3.0,7.0,61,0.00,,---,0.03,VWS V14.01,2013-09-11 20:27:00,
2013-09-11 15:30:00,82.1,66.4,29.94,WSW,254,4.0,11.0,59,0.00,,---,0.03,VWS V14.01,2013-09-11 20:30:00,
2013-09-11 15:32:00,81.8,66.1,29.94,WSW,237,2.0,8.0,59,0.00,,---,0.03,VWS V14.01,2013-09-11 20:32:00,
2013-09-11 15:35:00,81.7,66.0,29.94,WSW,250,6.0,11.0,59,0.00,,---,0.03,VWS V14.01,2013-09-11 20:35:00,
2013-09-11 15:37:00,81.7,67.9,29.94,WSW,237,3.0,7.0,63,0.00,,---,0.03,VWS V14.01,2013-09-11 20:37:00,
2013-09-11 15:40:00,81.8,67.1,29.94,WSW,250,5.0,7.0,61,0.00,,---,0.03,VWS V14.01,2013-09-11 20:40:00,
2013-09-11 15:42:00,82.1,66.8,29.94,SW,232,9.0,9.0,60,0.00,,---,0.03,VWS V14.01,2013-09-11 20:42:00,
2013-09-11 15:45:00,82.2,66.0,29.94,WNW,284,5.0,9.0,58,0.00,,---,0.03,VWS V14.01,2013-09-11 20:45:00,
2013-09-11 15:47:00,82.0,66.3,29.94,West,265,9.0,9.0,59,0.00,,---,0.03,VWS V14.01,2013-09-11 20:47:00,
2013-09-11 15:50:00,81.7,66.0,29.94,West,281,2.0,9.0,59,0.00,,---,0.03,VWS V14.01,2013-09-11 20:50:00,
2013-09-11 15:52:00,81.4,66.2,29.94,West,275,2.0,9.0,60,0.00,,---,0.03,VWS V14.01,2013-09-11 20:52:00,
2013-09-11 15:55:00,81.4,66.7,29.94,WSW,239,5.0,9.0,61,0.00,,---,0.03,VWS V14.01,2013-09-11 20:55:00,
2013-09-11 15:57:00,81.7,66.5,29.94,West,271,2.0,7.0,60,0.00,,---,0.03,VWS V14.01,2013-09-11 20:57:00,
2013-09-11 16:00:00,81.9,67.1,29.94,SW,234,6.0,7.0,61,0.00,,---,0.03,VWS V14.01,2013-09-11 21:00:00,
2013-09-11 16:02:00,82.4,65.7,29.94,SW,218,3.0,8.0,57,0.00,,---,0.03,VWS V14.01,2013-09-11 21:02:00,
2013-09-11 16:05:00,82.5,65.8,29.94,West,259,5.0,8.0,57,0.00,,---,0.03,VWS V14.01,2013-09-11 21:05:00,
2013-09-11 16:07:00,82.7,65.9,29.94,SW,225,1.0,7.0,57,0.00,,---,0.03,VWS V14.01,2013-09-11 21:07:00,
2013-09-11 16:10:00,82.8,66.0,29.94,SSW,195,6.0,7.0,57,0.00,,---,0.03,VWS V14.01,2013-09-11 21:10:00,
2013-09-11 16:12:00,83.1,65.8,29.94,West,263,5.0,13.0,56,0.00,,---,0.03,VWS V14.01,2013-09-11 21:12:00,
2013-09-11 16:15:00,83.2,65.4,29.94,NNW,334,4.0,13.0,55,0.00,,---,0.03,VWS V14.01,2013-09-11 21:15:00,
2013-09-11 16:17:00,82.8,66.0,29.94,West,272,7.0,9.0,57,0.00,,---,0.03,VWS V14.01,2013-09-11 21:17:00,
2013-09-11 16:29:00,82.4,64.6,29.94,WSW,248,5.0,10.0,55,0.00,,---,0.03,VWS V14.01,2013-09-11 21:29:00,
2013-09-11 16:39:00,80.9,64.8,29.94,SW,218,3.0,7.0,58,0.00,,---,0.03,VWS V14.01,2013-09-11 21:39:00,
2013-09-11 16:44:00,80.9,64.8,29.94,West,275,2.0,6.0,58,0.00,,---,0.03,VWS V14.01,2013-09-11 21:44:00,
2013-09-11 16:49:00,80.9,65.2,29.94,West,260,6.0,6.0,59,0.00,,---,0.03,VWS V14.01,2013-09-11 21:49:00,
2013-09-11 16:54:00,81.1,65.4,29.94,WSW,248,3.0,4.0,59,0.00,,---,0.03,VWS V14.01,2013-09-11 21:54:00,
2013-09-11 16:59:00,81.1,65.4,29.94,SW,215,3.0,3.0,59,0.00,,---,0.03,VWS V14.01,2013-09-11 21:59:00,
2013-09-11 17:04:00,81.0,65.3,29.94,West,262,4.0,5.0,59,0.00,,---,0.03,VWS V14.01,2013-09-11 22:04:00,
2013-09-11 17:09:00,80.8,65.6,29.94,SW,214,4.0,4.0,60,0.00,,---,0.03,VWS V14.01,2013-09-11 22:09:00,
2013-09-11 17:14:00,80.7,65.5,29.94,NW,306,5.0,5.0,60,0.00,,---,0.03,VWS V14.01,2013-09-11 22:14:00,
2013-09-11 17:19:00,80.8,65.6,29.94,WSW,249,3.0,5.0,60,0.00,,---,0.03,VWS V14.01,2013-09-11 22:19:00,
2013-09-11 17:24:00,80.7,65.5,29.94,SW,235,4.0,4.0,60,0.00,,---,0.03,VWS V14.01,2013-09-11 22:24:00,
2013-09-11 17:29:00,80.6,65.4,29.94,WNW,292,3.0,4.0,60,0.00,,---,0.03,VWS V14.01,2013-09-11 22:29:00,
2013-09-11 17:34:00,80.6,65.9,29.94,WSW,246,7.0,8.0,61,0.00,,---,0.03,VWS V14.01,2013-09-11 22:34:00,
2013-09-11 17:44:00,80.9,66.2,29.94,WSW,255,6.0,7.0,61,0.00,,---,0.03,VWS V14.01,2013-09-11 22:44:00,
2013-09-11 17:49:00,80.8,65.6,29.94,West,269,5.0,8.0,60,0.00,,---,0.03,VWS V14.01,2013-09-11 22:49:00,
2013-09-11 17:54:00,80.7,66.5,29.94,WNW,302,0.0,2.0,62,0.00,,---,0.03,VWS V14.01,2013-09-11 22:54:00,
2013-09-11 17:59:00,80.3,66.1,29.94,West,279,3.0,6.0,62,0.00,,---,0.03,VWS V14.01,2013-09-11 22:59:00,
2013-09-11 18:04:00,80.0,66.3,29.94,NW,306,1.0,1.0,63,0.00,,---,0.03,VWS V14.01,2013-09-11 23:04:00,
2013-09-11 18:09:00,79.7,66.0,29.94,West,277,5.0,6.0,63,0.00,,---,0.03,VWS V14.01,2013-09-11 23:09:00,
2013-09-11 18:14:00,79.3,66.1,29.94,WNW,298,1.0,2.0,64,0.00,,---,0.03,VWS V14.01,2013-09-11 23:14:00,
2013-09-11 18:19:00,79.2,66.0,29.94,WNW,284,3.0,4.0,64,0.00,,---,0.03,VWS V14.01,2013-09-11 23:19:00,
2013-09-11 18:24:00,78.8,66.1,29.94,WNW,294,3.0,3.0,65,0.00,,---,0.03,VWS V14.01,2013-09-11 23:24:00,
2013-09-11 18:29:00,78.6,66.3,29.94,WNW,303,0.0,2.0,66,0.00,,---,0.03,VWS V14.01,2013-09-11 23:29:00,
2013-09-11 18:34:00,78.5,66.2,29.94,WNW,286,1.0,1.0,66,0.00,,---,0.03,VWS V14.01,2013-09-11 23:34:00,
2013-09-11 18:39:00,78.4,66.1,29.93,WNW,286,0.0,0.0,66,0.00,,---,0.03,VWS V14.01,2013-09-11 23:39:00,
2013-09-11 18:44:00,78.2,66.4,29.93,WNW,286,0.0,0.0,67,0.00,,---,0.03,VWS V14.01,2013-09-11 23:44:00,
2013-09-11 18:49:00,77.9,66.5,29.93,WNW,286,0.0,0.0,68,0.00,,---,0.03,VWS V14.01,2013-09-11 23:49:00,
2013-09-11 18:54:00,77.5,66.5,29.93,WNW,286,0.0,0.0,69,0.00,,---,0.03,VWS V14.01,2013-09-11 23:54:00,
2013-09-11 19:04:00,76.6,66.5,29.93,WNW,286,0.0,0.0,71,0.00,,---,0.03,VWS V14.01,2013-09-12 00:04:00,
2013-09-11 19:09:00,76.1,66.8,29.93,WNW,286,0.0,0.0,73,0.00,,---,0.03,VWS V14.01,2013-09-12 00:09:00,
2013-09-11 19:14:00,75.5,66.6,29.93,WNW,286,0.0,0.0,74,0.00,,---,0.03,VWS V14.01,2013-09-12 00:14:00,
2013-09-11 19:19:00,74.8,66.3,29.93,WNW,286,0.0,0.0,75,0.00,,---,0.03,VWS V14.01,2013-09-12 00:19:00,
2013-09-11 19:25:00,74.1,66.1,29.93,WNW,286,0.0,0.0,76,0.00,,---,0.03,VWS V14.01,2013-09-12 00:25:00,
2013-09-11 19:34:00,72.9,66.0,29.93,WNW,286,0.0,0.0,79,0.00,,---,0.03,VWS V14.01,2013-09-12 00:34:00,
2013-09-11 19:39:00,72.2,65.7,29.93,WNW,286,0.0,0.0,80,0.00,,---,0.03,VWS V14.01,2013-09-12 00:39:00,
2013-09-11 19:44:00,71.5,65.7,29.93,WNW,286,0.0,0.0,82,0.00,,---,0.03,VWS V14.01,2013-09-12 00:44:00,
2013-09-11 19:49:00,70.8,65.4,29.93,WNW,286,0.0,0.0,83,0.00,,---,0.03,VWS V14.01,2013-09-12 00:49:00,
2013-09-11 19:54:00,70.4,65.3,29.93,WNW,286,0.0,0.0,84,0.00,,---,0.03,VWS V14.01,2013-09-12 00:54:00,
2013-09-11 20:00:00,70.0,65.3,29.93,WNW,286,0.0,0.0,85,0.00,,---,0.03,VWS V14.01,2013-09-12 01:00:00,
2013-09-11 20:05:00,69.4,65.0,29.93,WNW,286,0.0,0.0,86,0.00,,---,0.03,VWS V14.01,2013-09-12 01:05:00,
2013-09-11 20:10:00,69.0,64.6,29.94,WNW,286,0.0,0.0,86,0.00,,---,0.03,VWS V14.01,2013-09-12 01:10:00,
2013-09-11 20:15:00,68.7,64.7,29.94,WNW,286,0.0,0.0,87,0.00,,---,0.03,VWS V14.01,2013-09-12 01:15:00,
2013-09-11 20:20:00,68.4,64.7,29.94,WNW,286,0.0,0.0,88,0.00,,---,0.03,VWS V14.01,2013-09-12 01:20:00,
2013-09-11 20:25:00,68.1,64.4,29.94,WNW,286,0.0,0.0,88,0.00,,---,0.03,VWS V14.01,2013-09-12 01:25:00,
2013-09-11 20:30:00,67.9,64.5,29.94,WNW,286,0.0,0.0,89,0.00,,---,0.03,VWS V14.01,2013-09-12 01:30:00,
2013-09-11 20:35:00,67.5,64.2,29.94,WNW,286,0.0,0.0,89,0.00,,---,0.03,VWS V14.01,2013-09-12 01:35:00,
2013-09-11 20:44:00,67.2,64.2,29.94,WNW,286,0.0,0.0,90,0.00,,---,0.03,VWS V14.01,2013-09-12 01:44:00,
2013-09-11 20:50:00,67.0,64.3,29.94,WNW,286,0.0,0.0,91,0.00,,---,0.03,VWS V14.01,2013-09-12 01:50:00,
2013-09-11 20:55:00,66.8,63.8,29.94,WNW,286,0.0,0.0,90,0.00,,---,0.03,VWS V14.01,2013-09-12 01:55:00,
2013-09-11 21:00:00,66.7,64.0,29.94,WNW,286,0.0,0.0,91,0.00,,---,0.03,VWS V14.01,2013-09-12 02:00:00,
2013-09-11 21:05:00,66.5,63.8,29.94,WNW,286,0.0,0.0,91,0.00,,---,0.03,VWS V14.01,2013-09-12 02:05:00,
2013-09-11 21:10:00,66.3,63.6,29.94,WNW,286,0.0,0.0,91,0.00,,---,0.03,VWS V14.01,2013-09-12 02:10:00,
2013-09-11 21:15:00,66.1,63.4,29.94,WNW,286,0.0,0.0,91,0.00,,---,0.03,VWS V14.01,2013-09-12 02:15:00,
2013-09-11 21:20:00,65.9,63.2,29.94,WNW,286,0.0,0.0,91,0.00,,---,0.03,VWS V14.01,2013-09-12 02:20:00,
2013-09-11 21:25:00,65.7,63.3,29.94,WNW,286,0.0,0.0,92,0.00,,---,0.03,VWS V14.01,2013-09-12 02:25:00,
2013-09-11 21:30:00,65.6,63.2,29.94,WNW,286,0.0,0.0,92,0.00,,---,0.03,VWS V14.01,2013-09-12 02:30:00,
2013-09-11 21:35:00,65.4,63.0,29.94,WNW,286,0.0,0.0,92,0.00,,---,0.03,VWS V14.01,2013-09-12 02:35:00,
2013-09-11 21:40:00,65.4,63.3,29.94,WNW,286,0.0,0.0,93,0.00,,---,0.03,VWS V14.01,2013-09-12 02:40:00,
2013-09-11 21:45:00,65.5,63.4,29.94,WNW,286,0.0,0.0,93,0.00,,---,0.03,VWS V14.01,2013-09-12 02:45:00,
2013-09-11 21:50:00,65.4,63.3,29.94,WNW,286,0.0,0.0,93,0.00,,---,0.03,VWS V14.01,2013-09-12 02:50:00,
2013-09-11 21:55:00,65.4,63.3,29.94,WNW,286,0.0,0.0,93,0.00,,---,0.03,VWS V14.01,2013-09-12 02:55:00,
2013-09-11 22:00:00,65.4,63.6,29.94,WNW,286,0.0,0.0,94,0.00,,---,0.03,VWS V14.01,2013-09-12 03:00:00,
2013-09-11 22:05:00,65.4,63.6,29.94,WNW,286,0.0,0.0,94,0.00,,---,0.03,VWS V14.01,2013-09-12 03:05:00,
2013-09-11 22:10:00,65.4,63.6,29.94,WNW,286,0.0,0.0,94,0.00,,---,0.03,VWS V14.01,2013-09-12 03:10:00,
2013-09-11 22:15:00,65.3,63.5,29.95,WNW,286,0.0,0.0,94,0.00,,---,0.03,VWS V14.01,2013-09-12 03:15:00,
2013-09-11 22:20:00,65.4,63.6,29.94,WNW,286,0.0,0.0,94,0.00,,---,0.03,VWS V14.01,2013-09-12 03:20:00,
2013-09-11 22:25:00,65.5,63.7,29.94,WNW,286,0.0,0.0,94,0.00,,---,0.03,VWS V14.01,2013-09-12 03:25:00,
2013-09-11 22:30:00,65.6,63.8,29.95,WNW,286,0.0,0.0,94,0.00,,---,0.03,VWS V14.01,2013-09-12 03:30:00,
2013-09-11 22:35:00,65.5,63.7,29.95,WNW,286,0.0,0.0,94,0.00,,---,0.03,VWS V14.01,2013-09-12 03:35:00,
2013-09-11 22:40:00,65.5,63.7,29.94,WNW,286,0.0,0.0,94,0.00,,---,0.03,VWS V14.01,2013-09-12 03:40:00,
2013-09-11 22:45:00,65.7,64.2,29.94,WNW,286,0.0,1.0,95,0.00,,---,0.03,VWS V14.01,2013-09-12 03:45:00,
2013-09-11 22:50:00,66.0,64.2,29.94,WNW,286,0.0,0.0,94,0.00,,---,0.03,VWS V14.01,2013-09-12 03:50:00,
2013-09-11 22:55:00,66.3,64.8,29.94,WSW,246,0.0,2.0,95,0.00,,---,0.03,VWS V14.01,2013-09-12 03:55:00,
2013-09-11 23:00:00,66.6,64.8,29.94,WSW,246,1.0,2.0,94,0.00,,---,0.03,VWS V14.01,2013-09-12 04:00:00,
2013-09-11 23:04:00,66.7,64.9,29.94,WSW,246,1.0,3.0,94,0.00,,---,0.03,VWS V14.01,2013-09-12 04:04:00,
2013-09-11 23:05:00,66.8,65.0,29.94,WSW,245,2.0,3.0,94,0.00,,---,0.03,VWS V14.01,2013-09-12 04:05:00,
2013-09-11 23:10:00,67.0,65.2,29.94,WSW,245,0.0,1.0,94,0.00,,---,0.03,VWS V14.01,2013-09-12 04:10:00,
2013-09-11 23:14:00,67.0,64.9,29.94,WSW,245,3.0,3.0,93,0.00,,---,0.03,VWS V14.01,2013-09-12 04:14:00,
2013-09-11 23:20:00,67.1,65.0,29.94,WSW,240,2.0,3.0,93,0.00,,---,0.03,VWS V14.01,2013-09-12 04:20:00,
2013-09-11 23:25:00,67.1,65.0,29.94,West,259,0.0,2.0,93,0.00,,---,0.03,VWS V14.01,2013-09-12 04:25:00,
2013-09-11 23:30:00,67.1,65.0,29.94,West,259,2.0,2.0,93,0.00,,---,0.03,VWS V14.01,2013-09-12 04:30:00,
2013-09-11 23:35:00,67.1,65.0,29.94,West,259,1.0,3.0,93,0.00,,---,0.03,VWS V14.01,2013-09-12 04:35:00,
2013-09-11 23:39:00,67.1,65.0,29.94,WSW,244,0.0,5.0,93,0.00,,---,0.03,VWS V14.01,2013-09-12 04:39:00,
2013-09-11 23:44:00,67.0,64.9,29.94,WSW,244,0.0,3.0,93,0.00,,---,0.03,VWS V14.01,2013-09-12 04:44:00,
2013-09-11 23:49:00,67.0,64.9,29.94,WSW,244,0.0,1.0,93,0.00,,---,0.03,VWS V14.01,2013-09-12 04:49:00,
2013-09-11 23:54:00,67.0,64.9,29.94,WSW,244,0.0,1.0,93,0.00,,---,0.03,VWS V14.01,2013-09-12 04:54:00,